Content
SEND FEEDBACK

Daily
Averages
Monthly
Summary
United States of America

YIGO, GUAM


Home > North America > United States > Guam
Elevation: 162 meters     Latitude: 13 32N     Longitude: 144 53E

WEATHER
 
SELECT A DAY
Number of Records: 208,919;   Date Range: 1/1/95 - 7/23/14
 
SHARE

PRINT THIS DATA

[ ← Previous Day ]
WEATHER ALMANAC - 24 JUNE, 2013
[ Next Day → ]
[ °F ]   °C
We're sorry. There is no daily almanac available for Yigo, Guam on 24 June, 2013.
WEATHER BY HOUR - 24 JUNE, 2013
[ °F ]   °C
Local TimeTemperatureDewpointHumidityBarometerVisibilityWind DirectionWind SpeedGust SpeedPrecipitationEventsConditions
1:54 AM27.8 °C25 °C85 %1012.2 hPa16.1 kmEast (90°)11.1 km/hClear
2:54 AM27.8 °C25 °C85 %1011.5 hPa16.1 kmEast (90°)9.3 km/hMostly Cloudy
3:08 AM28 °C25 °C84 %1012.2 hPa16.1 kmEast (80°)9.3 km/hMostly Cloudy
3:15 AM28 °C25 °C84 %1012.2 hPa16.1 kmEast (90°)11.1 km/hScattered Clouds
3:54 AM28.3 °C24.4 °C79 %1011.2 hPa16.1 kmEast (80°)14.8 km/hPartly Cloudy
4:54 AM27.8 °C24.4 °C82 %1011.5 hPa16.1 kmEast (80°)11.1 km/hClear
5:54 AM28.3 °C24.4 °C79 %1011.5 hPa16.1 kmEast (80°)13 km/hPartly Cloudy
6:54 AM28.3 °C24.4 °C79 %1011.9 hPa16.1 kmEast (80°)16.7 km/hScattered Clouds
7:54 AM29.4 °C24.4 °C74 %1012.2 hPa16.1 kmEast (80°)18.5 km/hClear
8:33 AM30 °C24 °C70 %1013.2 hPa16.1 kmEast (90°)22.2 km/h31.5 km/hMostly Cloudy
8:54 AM30 °C24.4 °C72 %1012.5 hPa16.1 kmEast (80°)24.1 km/h33.3 km/hScattered Clouds
9:54 AM30.6 °C24.4 °C69 %1012.5 hPa16.1 kmEast (100°)24.1 km/h37 km/hScattered Clouds
10:54 AM31.1 °C24.4 °C67 %1012.5 hPa16.1 kmEast (100°)18.5 km/h38.9 km/hScattered Clouds
11:01 AM31 °C24 °C66 %1013.2 hPa16.1 kmESE (110°)29.6 km/h38.9 km/hMostly Cloudy
11:11 AM31 °C23 °C62 %1013.2 hPa16.1 kmEast (90°)24.1 km/h40.7 km/hScattered Clouds
11:54 AM32.2 °C23.9 °C61 %1012.2 hPa16.1 kmEast (100°)22.2 km/h38.9 km/hPartly Cloudy
12:54 PM31.7 °C23.9 °C63 %1011.9 hPa16.1 kmESE (110°)25.9 km/h38.9 km/hPartly Cloudy
1:28 PM29 °C26 °C84 %1012.9 hPa11.3 kmESE (110°)18.5 km/h37 km/h0 mmRainLight Rain
1:35 PM30 °C26 °C79 %1012.5 hPa16.1 kmESE (120°)20.4 km/h31.5 km/h0 mmPartly Cloudy
1:54 PM30.6 °C24.4 °C69 %1011.5 hPa16.1 kmESE (110°)20.4 km/h33.3 km/h0 mmPartly Cloudy
2:54 PM31.7 °C24.4 °C65 %1011.2 hPa16.1 kmEast (100°)25.9 km/h35.2 km/hScattered Clouds
3:54 PM28.9 °C25 °C79 %1010.8 hPa8 kmESE (120°)14.8 km/h42.6 km/hRainLight Rain
4:54 PM29.4 °C25.6 °C80 %1011.2 hPa14.5 kmESE (110°)18.5 km/h0 mmMostly Cloudy
5:54 PM28.9 °C25.6 °C82 %1011.2 hPa16.1 kmESE (110°)13 km/h0.76 mmScattered Clouds
6:54 PM27.8 °C25 °C85 %1011.9 hPa14.5 kmEast (80°)18.5 km/h0 mmRainLight Rain
7:54 PM28.3 °C25.6 °C85 %1012.2 hPa16.1 kmESE (110°)9.3 km/h0 mmPartly Cloudy
8:35 PM29 °C25 °C79 %1013.5 hPa16.1 kmEast (100°)9.3 km/hMostly Cloudy
8:54 PM28.9 °C25 °C79 %1012.9 hPa16.1 kmENE (70°)18.5 km/hMostly Cloudy
9:09 PM28 °C24 °C79 %1013.9 hPa16.1 kmEast (80°)14.8 km/hScattered Clouds
9:54 PM27.2 °C23.9 °C82 %1012.9 hPa16.1 kmEast (100°)9.3 km/hPartly Cloudy
10:54 PM26.7 °C24.4 °C87 %1013.5 hPa11.3 kmEast (100°)7.4 km/h1.78 mmOvercast
11:54 PM27.8 °C25 °C85 %1013.5 hPa16.1 kmEast (100°)7.4 km/h0.51 mmPartly Cloudy
Hourly data recorded from PGUM, located 0 kilometers away from Yigo, Guam







STORIES FROM OUR PARTNERS